{"data":{"norad_id":58383,"intl_designator":"2023-178K","name":"STARLINK-30921","alt_names":[],"object_type":"PAYLOAD","status":"ACTIVE","operator":null,"country":"US","launch_date":"2023-11-20","launch_site_code":"AFWTR","launch_vehicle":null,"mission":null,"orbit_class":"UNKNOWN","rcs_meters":null,"size_class":null,"mass_kg":null,"dimensions":null,"purposes":["comms"],"wikipedia_slug":null,"has_3d_model":false,"image_url":null,"decayed_at":null,"tle_current":{"epoch":"2026-09-20T11:16:14.704896Z","epoch_age_seconds":146333,"freshness":"FRESH","line1":"1 58383U 23178K   26263.46961464  .00001351  00000+0  51112-4 0  9990","line2":"2 58383  53.1589 172.0508 0000928  92.8560 267.2549 15.34389533159758","mean_motion":15.34389533,"eccentricity":9.28e-5,"inclination_deg":53.1589,"raan_deg":172.0508,"arg_perigee_deg":92.856,"mean_anomaly_deg":267.2549,"bstar":5.1112e-5,"rev_number":15975,"period_min":93.848398273713,"perigee_km":462.09951765245,"apogee_km":463.3691833751,"semimajor_km":6840.8713505138,"source":"CELESTRAK","updated_at":"2026-09-21T09:00:33.866684Z"}}}